weather station
Area: 11014 km2
The highest point: Tok (865 m.s.l.)
Total stations: 57
Stations online: 53
Stations offline: 4
Current weather
3°C

Meteorological map - weather stations in Středočeský

. The meteorological maps show weather information from WARIO weather stations

Weather stations Středočeský

 UpdatesNameStatusTemperatureHumidityWind speedWind direction
13.4.2021 19:43Barochov3.5 °C56.8 %1.6 m/s N
13.4.2021 19:45Beroun3.9 °C51.8 %1.2 m/s SW
13.4.2021 19:44Bořanovice3.8 °C58.5 %2.6 m/s W
13.4.2021 19:44Jílové u Prahy - Borek4.0 °C60.4 %1.8 m/s E
13.4.2021 19:44Břešťany4.1 °C57.8 %1.3 m/s SE
13.4.2021 19:45Brandýs nad Labem4.7 °C58.9 %1.1 m/s SW
29.3.2021 20:39Rakovník13.6 °C50.3 %0.0 m/s S
13.4.2021 19:44Králův Dvůr4.0 °C54.2 %2.6 m/s N
13.4.2021 19:44Chotětov4.7 °C63.7 %0.0 m/s E
13.4.2021 19:45Dobřejovice3.3 °C59.8 %2.6 m/s N
13.4.2021 19:45Dolní Břežany3.3 °C55.8 %1.8 m/s E
13.4.2021 19:44Dolní Jirčany2.9 °C65.7 %0.9 m/s W
22.3.2021 14:49Holubice5.6 °C49.3 %4.4 m/s S
13.4.2021 19:44Hostín u Vojkovic4.8 °C63.1 %2.9 m/s N
13.4.2021 19:44Hovorčovice4.2 °C57.7 %1.1 m/s E
13.4.2021 19:45Sedlčany3.2 °C67.9 %0.0 m/s E
13.4.2021 19:29Hřebeč3.8 °C60.8 %0.0 m/s NW
13.4.2021 19:45Kojetice4.6 °C100.0 %1.6 m/s N
13.4.2021 19:45Kostelec nad Černými lesy2.5 °C59.1 %1.9 m/s W
13.4.2021 19:44Krásná Hora nad Vltavou2.7 °C62.7 %1.1 m/s N
13.4.2021 19:44Květnice3.9 °C64.6 %1.1 m/s E
13.4.2021 19:44Libeř3.9 °C60.9 %0.0 m/s W
13.4.2021 19:44Zeleneč3.9 °C64.8 %1.5 m/s NW
13.4.2021 19:45Zdice4.8 °C54.8 %1.9 m/s N
13.4.2021 19:44Krušovice3.0 °C64.7 %0.8 m/s NW
25.3.2021 05:30Měšice °C %1.0 m/s SE
13.4.2021 19:44Jince2.9 °C61.6 %2.3 m/s NE
13.4.2021 19:45Dolní Jirčany2.9 °C67.1 %1.1 m/s NE
13.4.2021 19:44Cetyně1.9 °C64.5 %1.9 m/s N
13.4.2021 19:44Vysoký Újezd2.6 °C55.4 %2.2 m/s NW
13.4.2021 19:44Olešná1.9 °C70.4 %0.0 m/s NW
13.4.2021 19:44Srby3.1 °C70.9 %0.0 m/s W
13.4.2021 19:44Kralupy nad Vltavou5.3 °C55.3 %2.1 m/s NW
13.4.2021 19:44Mrač3.8 °C58.8 %0.0 m/s W
13.4.2021 19:44Velvary5.9 °C52.3 %2.2 m/s NW
13.4.2021 19:44Mladá Boleslav4.5 °C67.5 %0.0 m/s SE
13.4.2021 19:44Líbeznice4.0 °C58.2 %2.6 m/s N
13.4.2021 19:44Mnichovice3.3 °C56.9 %1.7 m/s N
13.4.2021 19:45Mšecké Žehrovice2.0 °C70.4 %2.3 m/s NW
13.4.2021 19:44Odolena voda4.2 °C57.0 %3.0 m/s NE
13.4.2021 19:44Orlov1.2 °C69.4 %1.8 m/s NW
13.4.2021 19:44Ostrá4.4 °C61.1 %2.0 m/s E
13.4.2021 19:44Petrovice2.7 °C67.8 %1.1 m/s N
13.4.2021 19:44Suchodol2.5 °C71.2 %1.9 m/s SW
13.4.2021 19:45Říčany2.8 °C62.2 %2.8 m/s NW
13.4.2021 19:44Semice4.8 °C68.6 %1.9 m/s S
13.4.2021 19:44Slaný3.2 °C71.1 %1.3 m/s W
13.4.2021 19:44Svojetice1.7 °C73.0 %1.5 m/s NW
13.4.2021 19:44Roztoky4.9 °C56.1 %1.1 m/s NW
13.4.2021 19:44Toušice3.7 °C67.0 %0.0 m/s SW
13.4.2021 19:44Třebsko1.4 °C71.2 %1.4 m/s N
13.4.2021 19:44Unhošť2.8 °C65.4 %1.0 m/s SE
13.4.2021 19:44Vrbčany3.9 °C73.2 %1.3 m/s N
13.4.2021 19:45Všešímy2.4 °C61.9 %2.1 m/s NE
13.4.2021 19:44Všetaty4.8 °C67.2 %2.7 m/s N
13.4.2021 19:44Zibohlavy °C %0.0 m/s E
13.4.2021 19:45Divišov1.8 °C69.2 %2.1 m/s S
Email notifications
Enter your email address to subscribe to notifications about news at warioweather.com. Your email address will not be used for any purpose other than sending these emails and will not be provided to any third party. The subscription can be ended at any time.
All data are only indicative. The portal administrator has no responsibility for potentially incorrect data and related consequences. Publishing or further sharing of content from www.warioweather.com is only allowed with written consent from WANET s.r.o.